Regional Weather Roundup
Issued by NWS Cleveland, OH

Home | Current Version | Previous Version | Graphics & Text | Print | Product List | Glossary On
Versions: 1 2 3 4 5 6 7 8 9 10 11 12 13 14 15 16 17 18 19 20 21 22 23 24 25 26 27 28 29 30 31 32 33 34 35 36 37 38 39 40 41 42 43 44 45 46 47 48 49 50
000
ASUS41 KCLE 290200
RWRCLE
OHIO REGIONAL WEATHER ROUNDUP
NATIONAL WEATHER SERVICE WILMINGTON, OH
1000 PM EDT THU JUL 28 2016

NOTE: "FAIR" INDICATES FEW OR NO CLOUDS BELOW 12,000 FEET WITH NO
SIGNIFICANT WEATHER AND/OR OBSTRUCTIONS TO VISIBILITY.

OHZ001>008-015>018-024>027-034-035-043-044-290300-
   NORTHWEST OHIO

CITY           SKY/WX    TMP DP  RH WIND       PRES   REMARKS
DEFIANCE       FAIR      77  66  68 CALM      29.89R
FINDLAY        FAIR      77  63  61 E5        29.89R
TOLEDO EXPRESS CLOUDY    77  69  76 E6        29.89R
TOLEDO EXEC    MOCLDY    78  73  84 NE3       29.91R
LIMA           FAIR      73  68  84 E3        29.90S
$$

OHZ009>014-019>023-028>033-038-089-290300-
   NORTHEAST OHIO

CITY           SKY/WX    TMP DP  RH WIND       PRES   REMARKS
CLE-HOPKINS    MOCLDY    77  67  71 N5        29.92R
CLE-LAKEFRONT  FAIR      77  69  76 NE7       29.88S
CUY CO. ARPT   PTCLDY    75  73  94 NE5       29.91S
LORAIN-ELYRIA  FAIR      72  63  73 CALM      29.90F
ASHTABULA      FAIR      69  68  96 CALM      29.92R
AKRON-CANTON   MOCLDY    72  67  84 S8        29.92S
WOOSTER        NOT AVBL
MANSFIELD      FAIR      73  63  70 CALM      29.93R
YOUNGSTOWN     CLOUDY    72  65  78 S6        29.92S
$$

OHZ042-051>053-060>062-070>072-077>081-290300-
  SOUTHWEST OHIO

CITY           SKY/WX    TMP DP  RH WIND       PRES   REMARKS
CINC-COVINGTON MOCLDY    75  73  93 S5        29.90F
CINC-LUNKEN    MOCLDY    75  73  93 CALM      29.89S
HAMILTON       FAIR      73  69  87 CALM      29.90R
DAYTON         NOT AVBL
WRIGHT-PAT AFB NOT AVBL
DAYTON GENERAL FAIR      76  68  76 CALM      29.90R
WILMINGTON     FAIR      72  71  97 S5        29.92R
$$

OHZ036-037-039>041-045>050-054>059-063>069-073>076-082>088-290300-
  CENTRAL AND SOUTHEAST OHIO

CITY           SKY/WX    TMP DP  RH WIND       PRES   REMARKS
COLUMBUS       MOCLDY    73  73 100 CALM      29.89S
OSU AIRPORT    FAIR      70  69  97 CALM      29.90S
BOLTON FIELD   NOT AVBL
RICKENBACK AFB FAIR      71  70  98 CALM      29.90R
NEWARK         FAIR      72  71  97 CALM      29.90S FOG
MARION         FAIR      75  69  81 E3        29.91R
LANCASTER      FAIR      74  72  93 CALM      29.91R
ZANESVILLE     CLOUDY    75  72  90 CALM      29.91S
NEW PHILLY     CLOUDY    73  69  87 SE3       29.92S
$$




USA.gov is the U.S. government's official web portal to all federal, state and local government web resources and services.